Location: Unspecified
(0.0000°N, 0.0000°E)
Time: 08:32:23
(UTC+00:00)

OV3-3 - Visible Passes

Search period start: 19 April 2019 00:00
Search period end: 29 April 2019 00:00
Orbit: 339 x 2240 km, 81.4° (Epoch: 18 April)

Date Brightness Start Highest point End Pass type
(mag) Time Alt. Az. Time Alt. Az. Time Alt. Az.
26 Apr 9.0 19:27:17 10° NNE 19:28:56 18° NE 19:28:56 18° NE visible
26 Apr 10.1 21:19:43 10° NW 21:20:30 13° NW 21:20:30 13° NW visible
27 Apr 8.2 19:35:08 10° NNE 19:39:39 41° ENE 19:39:39 41° ENE visible
27 Apr 10.1 21:29:13 10° WNW 21:31:16 16° W 21:31:16 16° W visible
28 Apr 7.9 19:43:13 10° N 19:49:11 62° E 19:51:11 49° SE visible
28 Apr 10.4 21:39:29 10° W 21:42:32 13° WSW 21:42:54 13° WSW visible
